QPF
0.01 0.00 0.01 0.01 0.01 0.01 0.02 0.03 0.03 0.03 0.04 0.04 0.03 0.03 0.04 0.04 0.03 0.03 0.02 0.03 0.03 0.05 0.05 0.07 0.07 0.07 0.09 0.10 0.09 0.07 0.07 0.07 0.08 0.09 0.09 0.08 0.06 0.05 0.05 0.04 0.03 0.03 0.03 0.05
0.00 0.00 0.00 0.01 0.01 0.01 0.01 0.02 0.02 0.02 0.03 0.03 0.03 0.03 0.03 0.04 0.04 0.03 0.03 0.04 0.04 0.04 0.05 0.08 0.08 0.07 0.07 0.08 0.09 0.08 0.07 0.05 0.04 0.06 0.08 0.10 0.09 0.07 0.05 0.04 0.03 0.03 0.03 0.03
0.01 0.00 0.01 0.01 0.01 0.01 0.01 0.01 0.02 0.03 0.03 0.03 0.03 0.04 0.05 0.06 0.07 0.06 0.05 0.06 0.04 0.04 0.05 0.06 0.07 0.07 0.07 0.07 0.08 0.08 0.06 0.04 0.03 0.03 0.05 0.07 0.09 0.10 0.06 0.05 0.04 0.04 0.04 0.03
0.01 0.01 0.01 0.01 0.01 0.01 0.01 0.01 0.01 0.02 0.02 0.03 0.03 0.04 0.05 0.05 0.06 0.06 0.05 0.05 0.04 0.04 0.04 0.05 0.06 0.05 0.05 0.06 0.07 0.07 0.06 0.04 0.03 0.03 0.03 0.06 0.08 0.09 0.08 0.06 0.05 0.05 0.05 0.04
0.01 0.01 0.01 0.00 0.00 0.00 0.01 0.01 0.01 0.01 0.01 0.02 0.01 0.01 0.03 0.04 0.04 0.04 0.04 0.04 0.04 0.04 0.05 0.05 0.06 0.06 0.06 0.05 0.06 0.07 0.06 0.04 0.04 0.03 0.03 0.04 0.06 0.07 0.07 0.06 0.06 0.06 0.05 0.04
0.01 0.01 0.01 0.00 0.00 0.00 0.01 0.01 0.00 0.01 0.01 0.01 0.01 0.01 0.03 0.04 0.04 0.04 0.04 0.03 0.04 0.05 0.05 0.05 0.07 0.07 0.07 0.06 0.07 0.09 0.08 0.06 0.04 0.04 0.04 0.04 0.04 0.05 0.07 0.08 0.08 0.08 0.06 0.05
0.01 0.01 0.00 0.00 0.00 0.00 0.01 0.01 0.00 0.01 0.01 0.02 0.02 0.03 0.04 0.04 0.04 0.04 0.03 0.03 0.04 0.05 0.05 0.06 0.08 0.08 0.08 0.07 0.07 0.08 0.07 0.05 0.04 0.04 0.05 0.05 0.04 0.05 0.06 0.08 0.08 0.08 0.07 0.07
0.01 0.01 0.01 0.00 0.00 0.01 0.01 0.01 0.00 0.01 0.01 0.02 0.02 0.02 0.02 0.03 0.03 0.03 0.03 0.03 0.04 0.03 0.04 0.05 0.06 0.05 0.04 0.04 0.04 0.05 0.06 0.06 0.05 0.05 0.05 0.05 0.05 0.05 0.05 0.06 0.07 0.08 0.07 0.07
0.02 0.01 0.01 0.01 0.01 0.01 0.01 0.00 0.00 0.00 0.01 0.01 0.01 0.01 0.02 0.02 0.03 0.03 0.03 0.03 0.03 0.03 0.03 0.04 0.05 0.04 0.03 0.03 0.03 0.04 0.05 0.05 0.06 0.05 0.05 0.05 0.04 0.04 0.04 0.05 0.06 0.07 0.07 0.06
0.01 0.01 0.01 0.00 0.00 0.00 0.00 0.00 0.00 0.00 0.00 0.01 0.01 0.01 0.01 0.02 0.02 0.03 0.03 0.03 0.03 0.03 0.03 0.03 0.04 0.04 0.03 0.03 0.03 0.03 0.05 0.05 0.05 0.04 0.04 0.04 0.03 0.04 0.04 0.05 0.05 0.05 0.05 0.05
0.01 0.01 0.00 0.00 0.01 0.01 0.00 0.00 0.00 0.00 0.00 0.01 0.01 0.01 0.01 0.01 0.02 0.03 0.03 0.03 0.03 0.03 0.03 0.03 0.03 0.03 0.03 0.03 0.03 0.04 0.04 0.04 0.03 0.03 0.04 0.04 0.04 0.05 0.05 0.05 0.05 0.04 0.04 0.03
0.01 0.01 0.01 0.01 0.01 0.01 0.01 0.01 0.01 0.00 0.01 0.01 0.01 0.01 0.01 0.02 0.02 0.02 0.02 0.02 0.02 0.02 0.02 0.02 0.02 0.02 0.03 0.03 0.03 0.03 0.02 0.03 0.03 0.03 0.03 0.03 0.04 0.05 0.05 0.05 0.04 0.04 0.03 0.03
0.01 0.01 0.01 0.01 0.01 0.01 0.01 0.01 0.01 0.01 0.01 0.01 0.01 0.01 0.01 0.01 0.01 0.01 0.02 0.02 0.02 0.02 0.02 0.02 0.02 0.02 0.02 0.02 0.02 0.02 0.02 0.02 0.02 0.02 0.03 0.03 0.03 0.03 0.04 0.04 0.04 0.03 0.03 0.03
0.01 0.01 0.01 0.01 0.01 0.01 0.01 0.01 0.01 0.01 0.01 0.01 0.01 0.01 0.01 0.01 0.01 0.01 0.01 0.01 0.01 0.01 0.02 0.01 0.01 0.01 0.02 0.02 0.02 0.02 0.02 0.02 0.02 0.03 0.03 0.03 0.03 0.03 0.03 0.03 0.03 0.03 0.03 0.03
0.01 0.01 0.01 0.01 0.01 0.01 0.01 0.01 0.01 0.01 0.01 0.01 0.01 0.01 0.01 0.01 0.01 0.01 0.01 0.01 0.01 0.01 0.01 0.01 0.01 0.01 0.01 0.02 0.02 0.02 0.02 0.02 0.02 0.02 0.03 0.03 0.03 0.03 0.03 0.03 0.03 0.03 0.02 0.02
0.01 0.01 0.01 0.01 0.01 0.01 0.01 0.01 0.01 0.01 0.01 0.01 0.01 0.01 0.01 0.01 0.01 0.01 0.01 0.01 0.01 0.01 0.01 0.01 0.01 0.01 0.02 0.02 0.02 0.01 0.02 0.02 0.02 0.02 0.03 0.03 0.04 0.04 0.03 0.03 0.03 0.03 0.03 0.02
0.01 0.01 0.01 0.01 0.01 0.01 0.01 0.01 0.01 0.01 0.01 0.01 0.01 0.01 0.01 0.01 0.01 0.01 0.01 0.01 0.01 0.01 0.01 0.01 0.02 0.01 0.01 0.02 0.02 0.02 0.02 0.02 0.02 0.02 0.02 0.03 0.04 0.04 0.04 0.03 0.03 0.03 0.03 0.03
0.01 0.01 0.01 0.01 0.01 0.01 0.00 0.01 0.01 0.01 0.01 0.01 0.01 0.01 0.01 0.01 0.01 0.02 0.02 0.02 0.02 0.01 0.01 0.02 0.02 0.01 0.01 0.01 0.02 0.02 0.02 0.02 0.02 0.02 0.02 0.03 0.03 0.04 0.04 0.04 0.04 0.04 0.03 0.04
0.00 0.00 0.00 0.00 0.00 0.01 0.01 0.01 0.01 0.01 0.01 0.01 0.02 0.02 0.01 0.02 0.02 0.02 0.02 0.02 0.02 0.02 0.01 0.01 0.02 0.02 0.02 0.02 0.02 0.02 0.02 0.02 0.02 0.02 0.02 0.02 0.03 0.03 0.04 0.04 0.04 0.04 0.04 0.03
0.00 0.00 0.00 0.00 0.00 0.01 0.01 0.01 0.01 0.01 0.01 0.01 0.01 0.02 0.02 0.02 0.02 0.02 0.02 0.02 0.02 0.02 0.02 0.01 0.01 0.02 0.02 0.02 0.02 0.02 0.01 0.02 0.02 0.02 0.02 0.02 0.02 0.03 0.03 0.04 0.04 0.04 0.04 0.03
0.00 0.00 0.00 0.00 0.00 0.01 0.01 0.01 0.01 0.01 0.01 0.01 0.01 0.02 0.02 0.02 0.02 0.02 0.02 0.02 0.02 0.02 0.02 0.02 0.01 0.01 0.01 0.02 0.02 0.02 0.02 0.01 0.02 0.02 0.02 0.02 0.02 0.03 0.03 0.03 0.04 0.04 0.03 0.03
0.00 0.00 0.00 0.00 0.00 0.01 0.01 0.01 0.01 0.01 0.01 0.01 0.01 0.01 0.01 0.01 0.01 0.02 0.02 0.02 0.02 0.02 0.02 0.02 0.02 0.02 0.02 0.02 0.01 0.02 0.02 0.02 0.02 0.02 0.02 0.02 0.02 0.02 0.03 0.03 0.03 0.03 0.03 0.03
0.01 0.00 0.00 0.00 0.01 0.01 0.01 0.01 0.01 0.01 0.01 0.01 0.01 0.01 0.01 0.01 0.01 0.01 0.01 0.01 0.02 0.02 0.01 0.02 0.02 0.02 0.02 0.02 0.02 0.02 0.02 0.02 0.02 0.02 0.02 0.02 0.02 0.02 0.03 0.02 0.02 0.03 0.03 0.02
0.00 0.00 0.00 0.00 0.01 0.01 0.01 0.01 0.01 0.01 0.01 0.01 0.01 0.01 0.01 0.01 0.01 0.01 0.01 0.01 0.02 0.01 0.01 0.01 0.02 0.02 0.01 0.02 0.02 0.02 0.02 0.02 0.02 0.02 0.02 0.02 0.03 0.03 0.03 0.02 0.02 0.02 0.02 0.02
0.00 0.00 0.00 0.00 0.01 0.01 0.01 0.01 0.01 0.01 0.01 0.01 0.01 0.01 0.01 0.01 0.01 0.01 0.01 0.01 0.01 0.01 0.01 0.01 0.01 0.01 0.01 0.01 0.01 0.02 0.02 0.02 0.03 0.03 0.03 0.03 0.03 0.03 0.03 0.02 0.02 0.02 0.02 0.01
0.01 0.01 0.01 0.01 0.01 0.01 0.01 0.01 0.01 0.01 0.01 0.01 0.01 0.01 0.01 0.01 0.01 0.01 0.01 0.01 0.01 0.01 0.01 0.01 0.01 0.01 0.01 0.01 0.02 0.02 0.02 0.02 0.02 0.02 0.03 0.03 0.03 0.03 0.02 0.02 0.02 0.02 0.02 0.02
0.01 0.01 0.01 0.01 0.01 0.01 0.01 0.01 0.01 0.01 0.01 0.01 0.01 0.01 0.01 0.01 0.01 0.01 0.01 0.01 0.01 0.01 0.01 0.01 0.01 0.01 0.02 0.02 0.02 0.02 0.02 0.02 0.02 0.02 0.02 0.02 0.02 0.02 0.02 0.02 0.02 0.02 0.02 0.02
MSLP
1034.15 1034.00 1033.63 1033.05 1032.25 1031.24 1030.04 1028.72 1027.31 1025.89 1024.54 1023.33 1022.33 1021.60 1021.14 1020.96 1021.01 1021.25 1021.61 1022.01 1022.40 1022.73 1022.98 1023.15 1023.26 1023.34 1023.41 1023.52 1023.68 1023.89 1024.15 1024.43 1024.73 1025.01 1025.26 1025.48 1025.66 1025.81 1025.93 1026.02 1026.09 1026.14 1026.14 1026.10
1033.95 1033.48 1032.75 1031.79 1030.62 1029.29 1027.87 1026.43 1025.01 1023.70 1022.54 1021.57 1020.84 1020.36 1020.10 1020.06 1020.18 1020.42 1020.73 1021.05 1021.35 1021.62 1021.83 1022.00 1022.14 1022.28 1022.43 1022.61 1022.82 1023.06 1023.32 1023.59 1023.85 1024.09 1024.31 1024.50 1024.67 1024.84 1024.99 1025.12 1025.24 1025.34 1025.38 1025.37
1033.49 1032.72 1031.64 1030.33 1028.84 1027.25 1025.65 1024.13 1022.74 1021.55 1020.58 1019.86 1019.39 1019.13 1019.07 1019.15 1019.33 1019.57 1019.83 1020.09 1020.32 1020.53 1020.73 1020.92 1021.12 1021.33 1021.57 1021.82 1022.09 1022.36 1022.62 1022.86 1023.06 1023.24 1023.40 1023.55 1023.69 1023.84 1023.99 1024.15 1024.30 1024.42 1024.49 1024.51
1032.72 1031.69 1030.35 1028.76 1027.03 1025.26 1023.56 1022.01 1020.68 1019.62 1018.84 1018.33 1018.08 1018.02 1018.11 1018.28 1018.50 1018.73 1018.94 1019.14 1019.32 1019.51 1019.70 1019.93 1020.19 1020.48 1020.81 1021.14 1021.46 1021.76 1022.01 1022.21 1022.36 1022.47 1022.56 1022.64 1022.73 1022.84 1022.98 1023.13 1023.28 1023.41 1023.50 1023.52
1031.60 1030.39 1028.87 1027.12 1025.26 1023.41 1021.68 1020.16 1018.93 1018.00 1017.39 1017.07 1016.98 1017.06 1017.25 1017.47 1017.70 1017.91 1018.08 1018.23 1018.37 1018.54 1018.75 1019.01 1019.34 1019.71 1020.12 1020.52 1020.88 1021.20 1021.44 1021.60 1021.69 1021.73 1021.75 1021.76 1021.80 1021.87 1021.97 1022.11 1022.24 1022.36 1022.44 1022.46
1030.08 1028.78 1027.18 1025.38 1023.51 1021.68 1020.01 1018.60 1017.48 1016.70 1016.23 1016.04 1016.07 1016.24 1016.47 1016.72 1016.93 1017.10 1017.23 1017.34 1017.46 1017.62 1017.85 1018.16 1018.54 1018.98 1019.44 1019.89 1020.29 1020.62 1020.84 1020.97 1021.01 1021.00 1020.96 1020.92 1020.90 1020.93 1021.00 1021.11 1021.22 1021.32 1021.38 1021.37
1028.13 1026.81 1025.23 1023.50 1021.72 1020.01 1018.48 1017.21 1016.25 1015.61 1015.27 1015.18 1015.28 1015.49 1015.73 1015.97 1016.15 1016.29 1016.38 1016.46 1016.57 1016.73 1016.99 1017.33 1017.76 1018.24 1018.75 1019.23 1019.65 1019.97 1020.18 1020.28 1020.29 1020.24 1020.16 1020.08 1020.04 1020.04 1020.09 1020.17 1020.25 1020.32 1020.35 1020.31
1025.76 1024.48 1023.01 1021.43 1019.83 1018.32 1016.98 1015.90 1015.11 1014.60 1014.37 1014.36 1014.50 1014.72 1014.96 1015.17 1015.33 1015.44 1015.51 1015.59 1015.70 1015.88 1016.16 1016.54 1016.99 1017.51 1018.03 1018.52 1018.93 1019.24 1019.44 1019.53 1019.52 1019.45 1019.36 1019.28 1019.22 1019.21 1019.24 1019.30 1019.36 1019.39 1019.38 1019.30
1023.03 1021.85 1020.54 1019.16 1017.79 1016.53 1015.43 1014.56 1013.94 1013.58 1013.44 1013.48 1013.64 1013.87 1014.10 1014.29 1014.44 1014.54 1014.63 1014.72 1014.86 1015.07 1015.38 1015.78 1016.26 1016.77 1017.30 1017.78 1018.18 1018.47 1018.66 1018.74 1018.73 1018.67 1018.59 1018.51 1018.47 1018.46 1018.48 1018.52 1018.55 1018.54 1018.48 1018.34
1020.10 1019.05 1017.92 1016.77 1015.66 1014.66 1013.81 1013.15 1012.70 1012.46 1012.41 1012.50 1012.68 1012.91 1013.14 1013.34 1013.50 1013.63 1013.74 1013.88 1014.07 1014.32 1014.67 1015.09 1015.57 1016.09 1016.60 1017.06 1017.44 1017.72 1017.90 1017.98 1017.98 1017.94 1017.88 1017.83 1017.80 1017.79 1017.81 1017.82 1017.81 1017.76 1017.63 1017.43
1017.18 1016.26 1015.32 1014.41 1013.55 1012.79 1012.17 1011.71 1011.42 1011.29 1011.31 1011.44 1011.65 1011.89 1012.13 1012.35 1012.55 1012.73 1012.91 1013.11 1013.36 1013.67 1014.05 1014.50 1014.99 1015.49 1015.98 1016.41 1016.77 1017.04 1017.22 1017.31 1017.33 1017.32 1017.28 1017.25 1017.23 1017.22 1017.22 1017.19 1017.13 1017.01 1016.82 1016.55
1014.51 1013.72 1012.96 1012.25 1011.61 1011.07 1010.64 1010.35 1010.19 1010.15 1010.23 1010.39 1010.62 1010.87 1011.14 1011.40 1011.66 1011.91 1012.17 1012.45 1012.77 1013.14 1013.56 1014.03 1014.52 1015.01 1015.48 1015.89 1016.24 1016.50 1016.68 1016.79 1016.83 1016.84 1016.83 1016.80 1016.77 1016.74 1016.69 1016.61 1016.48 1016.29 1016.01 1015.66
1012.30 1011.61 1011.00 1010.47 1010.01 1009.64 1009.36 1009.19 1009.12 1009.15 1009.26 1009.45 1009.69 1009.97 1010.27 1010.58 1010.90 1011.22 1011.56 1011.92 1012.31 1012.73 1013.19 1013.67 1014.16 1014.65 1015.10 1015.50 1015.84 1016.10 1016.29 1016.42 1016.48 1016.51 1016.50 1016.47 1016.41 1016.33 1016.22 1016.06 1015.84 1015.56 1015.19 1014.76
1010.66 1010.07 1009.58 1009.17 1008.85 1008.60 1008.43 1008.33 1008.31 1008.37 1008.50 1008.70 1008.95 1009.24 1009.57 1009.92 1010.30 1010.68 1011.09 1011.51 1011.95 1012.42 1012.90 1013.40 1013.89 1014.37 1014.81 1015.21 1015.55 1015.82 1016.03 1016.17 1016.26 1016.29 1016.28 1016.22 1016.12 1015.97 1015.77 1015.51 1015.20 1014.81 1014.36 1013.86
1009.62 1009.11 1008.71 1008.39 1008.15 1007.97 1007.85 1007.79 1007.79 1007.85 1007.98 1008.17 1008.42 1008.72 1009.06 1009.44 1009.85 1010.28 1010.73 1011.19 1011.67 1012.16 1012.65 1013.15 1013.64 1014.11 1014.55 1014.95 1015.30 1015.60 1015.83 1016.00 1016.10 1016.13 1016.10 1016.00 1015.84 1015.61 1015.32 1014.96 1014.54 1014.07 1013.54 1012.97
1009.09 1008.64 1008.30 1008.03 1007.84 1007.69 1007.58 1007.52 1007.51 1007.56 1007.66 1007.82 1008.05 1008.35 1008.69 1009.08 1009.51 1009.96 1010.43 1010.91 1011.40 1011.89 1012.38 1012.87 1013.35 1013.81 1014.26 1014.67 1015.04 1015.36 1015.62 1015.82 1015.93 1015.96 1015.91 1015.77 1015.55 1015.24 1014.86 1014.40 1013.89 1013.34 1012.75 1012.14
1008.90 1008.50 1008.19 1007.95 1007.76 1007.61 1007.49 1007.40 1007.36 1007.37 1007.44 1007.57 1007.78 1008.06 1008.39 1008.78 1009.21 1009.67 1010.14 1010.62 1011.10 1011.58 1012.05 1012.52 1012.99 1013.45 1013.89 1014.32 1014.71 1015.06 1015.35 1015.57 1015.70 1015.73 1015.66 1015.49 1015.20 1014.83 1014.37 1013.84 1013.26 1012.65 1012.02 1011.39
1008.85 1008.48 1008.19 1007.95 1007.75 1007.58 1007.42 1007.30 1007.21 1007.18 1007.21 1007.31 1007.50 1007.76 1008.08 1008.47 1008.89 1009.34 1009.80 1010.27 1010.73 1011.19 1011.64 1012.10 1012.55 1013.00 1013.45 1013.88 1014.29 1014.67 1014.98 1015.22 1015.37 1015.40 1015.32 1015.12 1014.80 1014.38 1013.87 1013.29 1012.67 1012.03 1011.38 1010.74
1008.75 1008.41 1008.13 1007.88 1007.66 1007.45 1007.26 1007.09 1006.96 1006.89 1006.89 1006.97 1007.13 1007.38 1007.71 1008.09 1008.51 1008.96 1009.42 1009.87 1010.32 1010.76 1011.20 1011.63 1012.06 1012.50 1012.95 1013.39 1013.81 1014.20 1014.53 1014.78 1014.94 1014.98 1014.89 1014.67 1014.34 1013.90 1013.36 1012.77 1012.14 1011.49 1010.84 1010.21
1008.50 1008.19 1007.92 1007.67 1007.42 1007.18 1006.95 1006.74 1006.58 1006.47 1006.45 1006.52 1006.68 1006.93 1007.26 1007.66 1008.09 1008.55 1009.01 1009.47 1009.91 1010.34 1010.77 1011.18 1011.60 1012.03 1012.47 1012.90 1013.32 1013.70 1014.04 1014.29 1014.44 1014.48 1014.39 1014.18 1013.84 1013.40 1012.87 1012.28 1011.66 1011.03 1010.40 1009.78
1008.09 1007.82 1007.57 1007.32 1007.06 1006.80 1006.54 1006.30 1006.11 1005.99 1005.95 1006.02 1006.19 1006.46 1006.81 1007.23 1007.69 1008.17 1008.65 1009.13 1009.58 1010.01 1010.43 1010.84 1011.25 1011.66 1012.07 1012.48 1012.88 1013.25 1013.56 1013.80 1013.94 1013.97 1013.88 1013.66 1013.33 1012.90 1012.40 1011.83 1011.24 1010.63 1010.02 1009.42
1007.61 1007.40 1007.18 1006.95 1006.69 1006.41 1006.14 1005.88 1005.68 1005.55 1005.51 1005.59 1005.77 1006.06 1006.44 1006.89 1007.39 1007.90 1008.42 1008.92 1009.39 1009.83 1010.25 1010.66 1011.05 1011.44 1011.82 1012.20 1012.56 1012.88 1013.16 1013.36 1013.47 1013.48 1013.38 1013.16 1012.84 1012.44 1011.96 1011.43 1010.87 1010.29 1009.71 1009.11
1007.21 1007.07 1006.91 1006.70 1006.46 1006.19 1005.90 1005.64 1005.43 1005.30 1005.26 1005.34 1005.54 1005.85 1006.26 1006.74 1007.27 1007.82 1008.36 1008.89 1009.38 1009.84 1010.27 1010.66 1011.04 1011.39 1011.74 1012.07 1012.37 1012.64 1012.86 1013.01 1013.08 1013.06 1012.93 1012.71 1012.40 1012.01 1011.56 1011.07 1010.54 1010.00 1009.43 1008.84
1007.06 1007.00 1006.90 1006.73 1006.52 1006.25 1005.98 1005.72 1005.50 1005.36 1005.32 1005.40 1005.61 1005.92 1006.34 1006.84 1007.38 1007.95 1008.52 1009.06 1009.56 1010.03 1010.45 1010.84 1011.19 1011.51 1011.80 1012.08 1012.32 1012.52 1012.67 1012.76 1012.78 1012.71 1012.56 1012.32 1012.01 1011.64 1011.21 1010.75 1010.25 1009.74 1009.19 1008.60
1007.28 1007.31 1007.27 1007.15 1006.96 1006.71 1006.44 1006.18 1005.96 1005.80 1005.75 1005.82 1006.01 1006.31 1006.72 1007.20 1007.74 1008.30 1008.86 1009.40 1009.90 1010.36 1010.77 1011.13 1011.45 1011.73 1011.98 1012.19 1012.36 1012.50 1012.58 1012.60 1012.56 1012.45 1012.26 1012.01 1011.69 1011.32 1010.91 1010.47 1010.00 1009.51 1008.98 1008.40
1007.94 1008.04 1008.05 1007.97 1007.80 1007.57 1007.30 1007.04 1006.80 1006.63 1006.55 1006.58 1006.73 1007.00 1007.36 1007.80 1008.30 1008.83 1009.36 1009.87 1010.34 1010.77 1011.15 1011.48 1011.76 1012.00 1012.20 1012.35 1012.47 1012.54 1012.56 1012.52 1012.43 1012.27 1012.05 1011.78 1011.45 1011.08 1010.67 1010.24 1009.79 1009.31 1008.80 1008.24
1009.01 1009.15 1009.19 1009.13 1008.98 1008.75 1008.48 1008.20 1007.95 1007.75 1007.63 1007.61 1007.70 1007.90 1008.20 1008.57 1009.00 1009.46 1009.93 1010.39 1010.81 1011.20 1011.54 1011.83 1012.07 1012.27 1012.42 1012.53 1012.60 1012.61 1012.59 1012.50 1012.37 1012.17 1011.92 1011.63 1011.28 1010.90 1010.50 1010.07 1009.62 1009.15 1008.65 1008.11
Thickness
5333 5339 5336 5338 5340 5340 5336 5337 5340 5349 5349 5359 5357 5356 5358 5360 5364 5368 5372 5377 5382 5388 5396 5403 5410 5417 5424 5432 5439 5445 5451 5456 5461 5465 5469 5474 5479 5483 5487 5491 5496 5500 5503 5506
5325 5335 5334 5337 5341 5338 5336 5335 5334 5342 5348 5353 5350 5350 5352 5354 5358 5361 5365 5370 5375 5381 5387 5394 5401 5407 5414 5422 5428 5435 5440 5446 5451 5455 5459 5463 5467 5471 5475 5479 5484 5488 5491 5494
5317 5321 5328 5330 5333 5334 5331 5330 5331 5334 5342 5343 5342 5344 5345 5347 5350 5352 5356 5361 5367 5372 5379 5386 5392 5398 5405 5412 5418 5424 5430 5436 5440 5444 5448 5452 5456 5459 5463 5467 5472 5475 5479 5483
5305 5308 5315 5337 5330 5329 5327 5326 5325 5330 5334 5334 5335 5338 5339 5341 5342 5344 5349 5353 5359 5366 5372 5379 5384 5389 5396 5403 5409 5415 5420 5424 5429 5433 5436 5440 5443 5447 5451 5455 5460 5464 5467 5470
5295 5291 5306 5326 5325 5317 5317 5321 5322 5322 5326 5326 5326 5331 5334 5337 5337 5340 5344 5348 5353 5358 5364 5371 5376 5381 5388 5394 5400 5405 5410 5415 5419 5423 5426 5429 5432 5436 5440 5443 5448 5452 5456 5458
5283 5290 5303 5325 5319 5313 5314 5316 5320 5316 5316 5316 5319 5322 5329 5331 5332 5334 5337 5342 5346 5350 5356 5362 5367 5373 5379 5384 5389 5395 5401 5406 5410 5413 5416 5419 5422 5425 5428 5432 5436 5440 5443 5447
5278 5279 5296 5308 5306 5309 5308 5317 5313 5309 5308 5308 5309 5313 5318 5321 5324 5326 5329 5334 5338 5342 5347 5352 5358 5364 5369 5374 5379 5385 5391 5396 5400 5404 5407 5410 5412 5415 5419 5422 5425 5427 5431 5435
5274 5273 5294 5303 5300 5300 5304 5305 5303 5302 5301 5301 5303 5306 5309 5312 5315 5318 5321 5325 5329 5333 5338 5343 5349 5355 5360 5364 5370 5375 5381 5387 5391 5395 5397 5400 5402 5404 5407 5410 5412 5414 5418 5422
5283 5296 5299 5293 5295 5296 5294 5293 5294 5293 5294 5294 5296 5298 5301 5303 5306 5309 5312 5317 5321 5324 5329 5335 5340 5344 5349 5355 5360 5366 5371 5376 5380 5384 5387 5389 5392 5393 5395 5397 5400 5403 5406 5409
5276 5288 5288 5287 5288 5289 5287 5287 5287 5286 5286 5287 5287 5289 5292 5294 5297 5300 5303 5307 5311 5315 5320 5325 5330 5335 5339 5344 5350 5355 5360 5365 5369 5372 5375 5378 5381 5383 5385 5387 5389 5391 5394 5397
5272 5280 5280 5286 5285 5286 5284 5282 5281 5280 5279 5279 5280 5281 5283 5285 5288 5290 5295 5298 5302 5305 5309 5314 5320 5324 5329 5334 5339 5344 5349 5353 5357 5361 5364 5367 5369 5372 5375 5377 5379 5381 5384 5386
5280 5283 5278 5283 5284 5282 5279 5277 5276 5274 5273 5273 5273 5274 5275 5277 5280 5283 5286 5289 5293 5296 5300 5305 5310 5314 5319 5323 5328 5333 5338 5342 5345 5349 5352 5355 5358 5360 5363 5365 5368 5371 5374 5377
5283 5282 5277 5279 5278 5276 5274 5273 5271 5269 5268 5267 5267 5267 5268 5270 5273 5275 5278 5281 5284 5288 5292 5296 5300 5305 5309 5314 5318 5323 5327 5330 5334 5337 5340 5343 5346 5349 5352 5354 5356 5359 5362 5364
5276 5273 5272 5272 5271 5270 5268 5267 5265 5264 5262 5262 5261 5262 5262 5263 5265 5267 5269 5273 5277 5281 5284 5288 5292 5296 5300 5304 5309 5312 5316 5320 5323 5326 5329 5332 5334 5337 5340 5342 5344 5346 5348 5351
5272 5269 5268 5267 5265 5264 5262 5260 5259 5257 5256 5256 5256 5256 5256 5257 5258 5260 5263 5266 5269 5273 5277 5280 5284 5288 5292 5295 5299 5303 5306 5310 5313 5315 5318 5321 5323 5326 5328 5330 5332 5334 5336 5337
5267 5265 5262 5261 5260 5259 5256 5254 5252 5252 5252 5251 5251 5251 5251 5252 5253 5254 5256 5259 5262 5266 5270 5273 5276 5280 5284 5287 5291 5294 5297 5300 5303 5305 5308 5310 5312 5314 5316 5318 5320 5322 5324 5325
5260 5259 5257 5255 5254 5253 5250 5249 5248 5248 5247 5246 5246 5246 5246 5246 5247 5249 5251 5253 5256 5259 5262 5265 5269 5273 5276 5280 5282 5285 5288 5290 5294 5296 5298 5300 5302 5303 5305 5307 5309 5310 5311 5313
5257 5257 5254 5252 5249 5248 5246 5245 5244 5243 5242 5242 5241 5240 5239 5239 5241 5243 5245 5247 5250 5253 5256 5259 5262 5265 5268 5271 5274 5276 5278 5280 5283 5285 5287 5289 5291 5292 5294 5296 5297 5299 5299 5301
5252 5251 5250 5248 5246 5243 5242 5240 5239 5239 5238 5237 5236 5235 5235 5235 5236 5238 5239 5240 5242 5245 5249 5251 5255 5257 5259 5261 5264 5266 5268 5270 5272 5273 5276 5278 5280 5282 5283 5284 5286 5287 5287 5289
5247 5246 5245 5244 5242 5239 5238 5236 5235 5234 5233 5233 5232 5231 5230 5231 5231 5232 5232 5234 5236 5238 5242 5244 5246 5248 5249 5252 5254 5256 5257 5259 5260 5262 5264 5266 5268 5270 5272 5273 5275 5275 5276 5277
5242 5241 5240 5238 5236 5235 5233 5231 5229 5228 5228 5228 5226 5226 5225 5225 5225 5225 5226 5228 5231 5232 5234 5237 5238 5239 5241 5243 5245 5245 5246 5248 5250 5251 5252 5254 5256 5258 5260 5262 5263 5264 5265 5266
5235 5234 5233 5232 5230 5229 5227 5226 5224 5223 5223 5222 5222 5221 5220 5220 5220 5220 5220 5222 5224 5226 5227 5228 5229 5231 5233 5234 5235 5236 5237 5238 5239 5240 5242 5243 5245 5247 5249 5250 5252 5253 5254 5255
5229 5228 5227 5226 5225 5223 5222 5220 5219 5218 5217 5217 5216 5215 5215 5215 5215 5214 5215 5216 5217 5219 5219 5220 5222 5224 5225 5225 5225 5226 5227 5228 5230 5231 5232 5233 5235 5236 5238 5239 5240 5242 5243 5244
5224 5223 5222 5220 5218 5217 5216 5215 5214 5213 5212 5212 5212 5211 5210 5210 5210 5210 5210 5211 5211 5212 5212 5213 5214 5215 5216 5215 5215 5216 5217 5218 5220 5221 5222 5224 5225 5226 5227 5228 5229 5231 5232 5233
5219 5217 5215 5213 5213 5212 5212 5210 5209 5208 5207 5207 5206 5206 5206 5205 5205 5204 5204 5204 5204 5205 5204 5205 5206 5207 5206 5205 5206 5206 5207 5209 5210 5212 5213 5214 5215 5216 5217 5218 5219 5221 5222 5223
5214 5212 5210 5209 5208 5207 5206 5205 5203 5203 5202 5202 5202 5201 5200 5200 5199 5198 5197 5197 5196 5197 5196 5196 5196 5197 5197 5197 5197 5198 5199 5200 5201 5202 5203 5205 5206 5207 5208 5209 5210 5211 5212 5214
5209 5207 5205 5204 5203 5202 5200 5199 5198 5197 5197 5197 5196 5196 5195 5194 5193 5192 5191 5190 5189 5188 5188 5188 5188 5188 5188 5189 5189 5190 5191 5192 5193 5194 5195 5196 5197 5198 5199 5200 5201 5202 5204 5205